Helicity
15 26 29 5 11 5 -5 -6 -24 20 29 64 35 17 16 21 58 144 94 104 97 157 89 154 215 278 301 301 267 233 235 201 179 185 213 207 201 186 149 136 123 130 80 96 125
24 22 20 21 28 20 8 2 -5 23 57 71 60 57 53 25 89 92 115 128 115 66 140 146 250 331 352 321 276 222 187 176 184 217 182 162 161 112 107 106 106 98 122 141 130
19 27 25 22 32 47 41 9 15 4 58 55 70 74 63 102 84 67 82 110 102 71 125 130 267 371 355 325 264 202 150 200 197 168 166 139 133 111 88 77 43 26 34 82 84
26 33 19 29 19 18 23 17 16 31 35 23 71 101 127 101 78 96 64 69 111 51 114 173 303 379 331 290 227 163 176 173 205 216 130 139 117 119 115 54 70 34 43 68 59
32 39 12 13 23 6 10 43 66 86 40 33 48 93 64 62 120 91 92 22 36 75 131 196 322 322 311 237 202 163 164 168 223 214 171 121 139 86 90 99 76 81 74 49 48
27 18 4 2 8 8 11 33 62 97 72 38 135 63 67 61 35 47 65 41 51 84 154 183 320 325 274 256 195 164 161 188 236 237 193 106 103 97 80 83 76 59 26 33 29
3 -7 12 -5 0 22 30 47 71 106 109 66 137 122 98 91 38 55 23 37 52 111 161 131 248 323 210 236 178 189 198 197 237 217 161 151 99 58 48 62 53 34 34 26 23
-13 -15 -5 -8 5 20 25 37 70 94 94 97 255 190 136 71 57 61 66 81 72 133 116 97 180 297 243 185 267 210 209 181 182 157 127 108 128 83 47 51 34 38 41 32 28
-43 -35 -8 3 18 23 24 23 10 40 96 109 154 225 192 170 118 120 76 75 91 106 63 92 166 223 231 225 274 263 189 150 132 101 91 82 113 87 48 55 33 35 30 31 25
-46 -46 -11 14 64 64 -7 23 47 11 25 62 94 60 215 253 224 162 131 97 36 104 164 140 180 178 210 180 191 148 135 141 99 96 70 67 69 77 55 36 22 21 15 23 28
-34 -37 -19 21 50 89 47 27 17 94 89 132 133 50 316 258 217 205 181 138 117 144 172 164 167 202 207 132 64 46 77 82 87 71 68 54 49 49 38 32 18 3 15 38 50
-19 -48 -64 -28 28 52 52 68 95 85 114 158 172 133 162 197 259 407 163 153 161 168 154 135 163 175 146 111 99 103 83 94 75 66 41 55 62 51 33 34 30 24 19 29 66
-9 -35 -70 -35 19 10 -22 42 69 70 95 136 161 155 137 86 74 193 96 133 110 93 87 58 133 120 82 166 134 178 81 82 63 72 38 41 49 80 93 111 102 89 67 69 52
12 -8 -18 -12 15 -2 -33 5 28 41 69 132 104 86 86 114 66 105 105 80 117 65 105 68 146 98 104 144 129 114 111 79 74 55 42 59 59 74 115 130 131 151 102 95 105
37 3 -10 6 36 -7 -13 -4 10 2 49 99 94 83 52 36 90 66 69 54 96 79 55 76 110 112 101 120 106 51 82 76 61 42 34 86 55 41 132 130 146 157 127 102 110
46 34 19 17 12 11 6 5 3 -4 29 46 95 91 69 99 94 95 88 109 61 46 134 105 108 93 101 118 102 64 92 109 87 62 31 78 75 59 105 118 130 108 93 77 77
66 50 50 39 48 24 10 0 -4 -18 27 33 61 71 90 93 88 83 86 75 69 78 107 130 126 123 113 104 113 100 88 56 60 91 23 96 110 67 87 83 88 105 94 81 85
67 67 57 61 43 24 18 16 -4 28 28 25 40 44 25 52 56 52 36 60 63 53 90 84 89 125 135 100 86 109 89 47 20 50 65 118 87 91 77 88 75 89 72 77 76
70 57 65 59 52 33 12 20 46 39 26 6 23 4 17 27 27 14 24 31 56 69 54 66 82 91 91 99 101 98 110 80 85 78 106 105 111 92 101 108 133 126 93 77 67
87 75 77 67 60 40 29 24 7 33 29 26 -8 -21 -22 8 5 10 27 41 34 42 34 25 65 66 65 64 87 92 68 132 151 96 95 117 106 87 120 149 175 158 110 109 100
73 64 95 54 39 27 26 22 28 29 24 11 28 13 -3 -14 -15 -9 -2 22 33 44 43 31 46 51 70 55 62 108 120 151 137 152 115 105 77 69 117 134 129 94 112 90 44
52 47 86 53 43 44 41 33 27 31 26 8 3 1 5 9 -2 -15 -18 8 57 40 39 49 51 62 72 90 85 97 107 141 160 121 158 152 118 132 111 131 138 157 135 74 42
39 41 51 60 47 41 38 44 40 41 29 25 14 -4 -4 -3 -11 -9 -8 -11 23 31 40 52 53 -89 64 65 110 104 109 156 214 225 189 223 133 124 137 172 193 182 83 20 25
37 21 12 17 14 39 45 43 43 36 35 34 31 13 8 -7 -23 -21 -24 -28 -23 -39 55 54 -32 -25 -24 -22 28 -21 -18 81 125 113 138 154 93 130 90 93 108 79 -10 -11 -11
20 29 18 31 14 32 28 31 31 40 35 37 36 41 40 13 1 2 2 -22 -26 -16 5 2 -1 2 -24 -18 2 8 43 102 138 146 124 103 71 88 10 97 98 33 44 55 91
34 45 33 50 31 47 42 45 38 32 46 33 35 35 63 60 66 62 50 36 22 30 44 54 17 7 -15 44 48 8 37 80 130 140 126 119 80 140 71 114 123 152 116 102 116
26 33 54 45 72 91 93 98 73 54 47 48 55 55 48 39 67 62 55 60 80 90 79 103 90 36 -52 13 51 -51 67 123 199 205 191 185 195 170 109 149 105 97 124 125 115
Wind_Speed
56 62 68 67 64 63 67 62 54 43 34 24 30 35 39 39 16 27 40 47 46 40 38 45 49 51 54 57 50 45 54 56 52 45 37 30 28 28 26 19 24 33 29 31 8
69 66 67 66 62 59 61 59 52 46 34 26 29 31 34 33 25 41 46 34 31 23 44 53 61 58 62 60 53 52 55 52 45 43 37 30 28 21 21 20 24 25 26 5 4
60 64 65 66 65 62 61 48 50 47 30 21 24 27 25 27 31 51 45 37 41 32 40 46 50 58 64 59 55 51 52 45 44 43 39 29 25 27 12 21 27 20 11 4 3
51 56 57 61 63 62 57 55 44 34 11 18 20 23 31 32 37 49 44 37 35 32 43 51 54 62 66 66 53 50 41 41 40 40 33 29 27 24 30 29 33 21 6 8 4
48 50 53 55 58 53 51 54 49 36 32 20 21 28 28 43 40 46 53 44 40 39 52 55 59 59 66 58 51 46 41 33 35 31 30 30 29 29 32 35 28 15 17 13 14
48 47 48 50 47 46 44 42 35 23 18 25 25 26 29 43 35 45 45 30 42 43 54 53 51 46 51 52 52 43 33 32 30 30 31 33 34 34 38 34 22 17 19 21 11
45 44 40 40 37 35 38 37 30 22 21 16 23 22 20 29 36 42 45 44 46 50 56 52 38 44 49 47 39 38 38 31 29 33 33 36 39 37 37 37 31 29 28 25 22
40 36 32 36 34 30 27 30 31 30 29 33 29 21 11 15 23 33 43 45 46 52 50 44 40 41 44 38 38 42 40 44 37 34 35 35 41 41 41 39 42 40 40 39 40
37 32 30 33 29 23 22 31 35 31 34 41 44 44 27 22 28 28 39 41 49 47 44 35 37 43 44 49 50 45 47 43 40 34 37 37 39 40 41 42 48 48 47 48 49
36 34 31 32 33 24 25 36 35 40 34 37 32 25 34 27 31 33 34 35 43 47 39 40 40 49 51 59 67 58 47 43 40 40 39 41 50 46 43 47 53 55 54 53 52
37 36 33 31 34 26 37 39 44 54 53 48 42 58 34 31 30 20 29 36 42 37 45 44 47 54 53 52 51 47 44 43 42 39 43 49 56 57 54 54 60 63 63 62 60
38 36 34 33 34 40 47 55 48 42 49 35 32 35 27 23 19 17 30 39 38 40 41 42 45 40 40 41 42 45 45 44 42 41 43 48 60 59 57 57 60 66 69 67 57
37 34 32 28 30 40 50 45 35 37 50 35 28 29 34 40 29 29 30 32 37 31 32 38 38 33 32 31 36 37 41 42 43 42 40 50 55 48 44 44 46 48 50 47 47
36 31 25 20 32 30 34 24 25 32 54 29 22 27 23 32 26 18 26 34 38 35 30 27 27 28 27 31 33 39 34 33 39 44 50 43 52 46 45 44 42 45 43 42 41
29 25 25 29 25 26 21 19 24 31 57 20 23 22 21 38 37 20 18 30 35 34 31 32 27 25 28 32 32 34 30 32 36 41 47 48 52 50 46 44 45 45 44 41 39
32 27 30 29 28 24 19 26 34 43 58 39 28 29 39 30 33 30 29 28 33 21 15 23 23 24 27 25 23 22 28 32 36 42 55 52 51 54 47 43 46 45 45 41 37
25 29 36 34 31 20 25 35 42 55 42 44 42 35 40 37 34 29 27 25 28 29 27 23 25 26 24 27 27 30 35 48 53 54 58 47 53 58 44 45 44 51 46 41 38
25 30 35 35 31 27 33 41 57 45 46 42 42 41 44 34 34 29 35 24 20 25 23 28 33 30 33 30 35 36 39 47 56 56 57 48 57 52 35 40 39 44 41 40 41
29 34 36 27 24 31 39 59 56 50 43 42 39 43 41 36 38 35 35 34 31 23 25 28 30 28 26 30 32 38 43 34 46 51 61 57 59 56 42 37 42 42 41 43 43
29 31 32 24 28 38 50 54 49 43 40 39 43 38 42 38 38 36 36 33 33 31 33 24 29 30 30 27 30 34 26 44 45 58 63 61 62 56 38 37 39 41 43 43 42
32 34 27 23 34 45 52 48 45 36 33 36 40 42 41 38 36 36 37 36 34 35 33 31 30 31 32 34 34 35 40 40 41 47 58 65 58 36 34 34 35 39 41 45 47
32 42 27 34 42 41 46 43 38 37 36 36 35 36 37 36 37 35 35 35 34 35 36 37 33 37 38 40 39 38 39 37 50 54 52 57 70 39 35 32 33 38 44 49 53
41 37 29 34 48 45 39 37 36 36 34 34 34 34 32 32 33 32 32 34 31 30 32 32 25 37 35 28 39 43 42 42 43 46 54 55 58 39 31 31 32 42 54 53 53
40 44 43 47 45 44 37 35 34 31 32 32 31 30 30 29 28 27 27 28 33 34 26 29 23 25 19 11 9 13 17 11 14 18 21 29 32 41 29 28 38 68 65 53 56
45 41 41 41 44 44 39 36 34 34 29 27 27 27 28 26 23 21 21 20 20 20 19 16 9 6 11 16 4 8 7 6 19 21 19 23 31 22 32 36 64 70 57 59 54
41 36 39 34 35 34 36 35 36 33 30 28 26 25 21 19 19 19 18 15 13 16 14 19 23 30 28 32 19 22 23 26 32 32 36 38 54 51 48 35 66 47 48 43 42
38 35 36 27 28 28 26 29 25 28 26 25 27 28 21 14 14 14 12 13 12 11 8 12 18 25 35 39 53 43 29 31 40 40 39 43 44 46 49 39 38 37 38 41 47
Wind_Direction
38 32 29 33 42 44 36 38 48 27 18 292 256 238 232 234 249 238 232 235 238 239 225 222 219 214 213 215 225 232 231 233 236 235 243 245 248 260 270 272 273 257 256 259 150
23 27 28 34 42 48 42 39 45 27 355 297 253 243 240 240 246 229 227 234 241 242 222 217 209 209 209 213 221 226 230 232 240 240 241 244 247 254 266 268 269 262 262 227 169
39 35 35 37 44 50 48 58 44 50 331 290 255 252 253 252 235 220 222 231 232 234 223 215 207 209 207 211 219 226 230 236 241 241 242 243 248 261 255 265 256 255 252 199 224
52 48 49 46 44 51 54 60 75 105 245 277 268 252 238 234 226 218 222 232 239 232 214 202 206 206 204 209 219 223 233 238 242 240 240 241 253 258 258 261 253 254 242 257 276
57 57 56 54 54 61 64 66 81 115 126 293 272 254 248 213 222 215 208 213 220 220 205 200 202 205 203 209 216 221 228 237 240 237 242 244 251 255 252 254 258 254 263 274 292
60 63 65 62 65 68 69 78 97 136 201 309 287 272 239 213 235 218 218 240 219 210 201 199 206 212 205 211 216 221 222 231 239 240 243 244 253 252 251 255 259 260 273 284 306
63 69 72 67 69 73 74 76 93 125 154 192 193 250 225 223 216 210 212 217 209 202 198 202 214 214 207 204 213 218 219 229 240 244 244 250 252 254 254 250 258 266 278 292 301
67 72 76 70 69 72 77 82 94 111 120 128 153 179 235 244 204 203 206 205 205 203 204 211 218 215 212 204 216 216 223 224 238 245 251 249 252 251 255 254 259 269 277 285 291
67 75 79 72 68 71 88 85 93 105 113 129 125 133 167 231 193 205 199 200 195 197 200 212 216 211 208 204 209 221 217 227 233 249 253 251 256 258 260 259 262 269 279 286 291
73 77 81 77 71 75 99 97 93 95 118 128 137 159 153 180 190 188 191 191 187 187 201 205 211 208 210 211 211 217 221 230 236 247 254 255 253 262 264 264 266 272 282 289 294
77 80 83 88 78 78 92 98 99 93 96 109 120 111 158 177 187 187 196 185 192 192 195 204 201 203 211 221 225 227 229 234 243 255 258 259 259 261 266 270 269 273 280 287 293
78 83 88 92 87 84 90 91 98 108 101 108 115 129 155 179 161 194 189 189 187 189 199 201 202 215 222 222 224 229 232 240 249 258 263 267 263 268 272 275 278 280 283 288 297
78 85 91 95 95 86 84 96 108 110 104 108 122 128 144 163 173 178 188 191 187 186 193 198 212 218 220 218 220 231 236 242 251 260 270 275 271 278 285 290 297 301 302 306 307
76 81 94 98 92 95 99 117 128 125 100 109 122 131 153 164 169 185 195 192 189 188 196 206 221 218 220 222 233 233 251 256 260 261 263 282 273 280 286 290 301 309 311 314 321
76 77 83 85 97 101 121 144 144 140 92 131 133 157 157 153 169 187 199 191 190 200 214 213 217 225 226 238 248 246 261 267 270 270 272 277 277 281 289 291 299 310 317 319 328
72 75 82 91 96 113 150 141 122 105 93 119 139 136 144 149 158 173 174 178 187 203 216 216 236 246 245 259 265 265 271 280 283 279 270 277 279 282 286 294 301 312 317 323 331
79 74 80 91 101 122 132 117 103 94 121 118 123 139 140 148 158 166 171 183 203 208 214 231 245 253 268 261 273 276 270 264 268 270 273 287 281 280 297 301 309 313 319 324 329
86 81 85 93 102 109 112 107 88 108 116 128 130 133 135 157 164 180 181 204 220 225 227 235 238 263 272 275 271 275 276 269 271 274 279 289 283 291 307 316 321 322 323 324 324
88 84 84 99 110 108 105 86 94 108 122 125 132 128 138 153 165 178 180 197 207 241 256 254 260 278 293 290 289 281 277 295 284 288 284 286 291 299 307 313 320 323 326 324 324
93 95 82 100 106 101 91 91 101 116 123 125 115 129 126 146 158 171 182 205 214 232 236 280 273 284 293 302 302 296 304 285 289 285 286 290 292 292 308 313 319 322 327 329 329
92 91 87 102 105 93 88 97 104 119 125 117 115 120 126 134 150 163 174 212 231 235 250 266 285 289 292 287 286 291 290 295 298 293 292 293 297 314 313 316 319 323 325 326 326
90 73 88 97 86 93 91 99 113 106 111 113 121 125 125 136 134 139 155 206 251 257 264 268 290 285 288 289 293 294 292 291 289 291 295 297 295 313 314 315 321 324 324 326 326
58 71 93 93 70 83 100 105 110 107 111 109 106 107 120 123 113 135 152 187 286 280 293 299 285 188 276 291 299 293 292 293 295 297 292 295 302 317 312 313 320 322 323 322 326
50 33 46 54 66 68 90 96 99 104 99 100 106 118 116 110 108 110 127 150 198 189 332 310 152 170 170 138 13 172 187 231 267 279 292 235 265 313 316 309 309 297 311 321 320
23 26 31 39 43 50 63 71 73 73 93 107 109 114 106 98 115 115 94 83 85 71 57 74 85 85 185 200 236 233 271 264 223 234 253 300 235 281 243 308 297 303 314 312 317
11 30 18 39 39 50 46 48 41 50 58 65 70 78 103 105 116 79 97 101 89 68 50 16 347 344 333 330 313 258 269 259 248 252 256 261 247 302 303 293 301 312 317 321 322
18 25 15 44 42 44 48 43 53 45 48 43 35 27 38 55 50 44 50 51 47 42 61 18 357 350 330 335 322 314 292 277 296 296 284 274 284 300 302 305 309 314 321 320 318